Weather History for KHFF - February, 2013

Change the Weather History Date:

Wednesday, February 6, 2013

  Actual Average Record
Temperature  
Mean Temperature 47 °F -  
Max Temperature 64 °F 55 °F 75 °F (2008)
Min Temperature 30 °F 32 °F 16 °F (2009)
Degree Days  
Heating Degree Days 18    
Moisture  
Dew Point 33 °F    
Average Humidity 85    
Maximum Humidity 100    
Minimum Humidity 25    
Precipitation  
Precipitation 0.00 in - - ()
Sea Level Pressure  
Sea Level Pressure 30.12 in    
Wind  
Wind Speed 2 mph (NNW)    
Max Wind Speed 9 mph    
Max Gust Speed -    
Visibility 5 miles    
Events Fog , Rain    
Averages and records for this station are not official NWS values.
T = Trace of Precipitation, MM = Missing Value Source: NWS Daily Summary

Daily Weather History Graph

Daily Weather History Graph

Search for Another Location

Airport or City:

Trip Planner

Search our weather history database for the weather conditions in past years. The results will help you decide how hot, cold, wet, or windy it might be!

Date:

Astronomy

Feb. 06, 2013 Rise Set
Actual Time 7:12 AM EST 5:52 PM EST
Civil Twilight 6:46 AM EST 6:18 PM EST
Nautical Twilight 6:16 AM EST 6:48 PM EST
Astronomical Twilight 5:46 AM EST 7:18 PM EST
Moon 3:50 AM EST (2/6) 2:12 PM EST (2/6)
Length of Visible Light 11h 32m
Length of Day
10h 39m
Waning Crescent, 17% of the Moon is Illuminated
Feb 6
Waning Crescent
Feb 10
New
Feb 17
First Quarter
Feb 25
Full
Mar 4
Last Quarter

Hourly Weather History & Observations

Time (EST) Temp. Windchill Dew Point Humidity Pressure Visibility Wind Dir Wind Speed Gust Speed Precip Events Conditions
12:55 AM 39.2 °F - 38.1 °F 96% 30.01 in 10.0 mi ENE 1.2 mph - N/A   Clear
1:55 AM 36.7 °F - 35.8 °F 97% 30.01 in 10.0 mi NW 1.2 mph - N/A   Clear
2:55 AM 35.1 °F - 34.3 °F 97% 30.02 in 6.0 mi North 2.3 mph - N/A   Clear
3:55 AM 33.6 °F - 33.1 °F 98% 30.03 in 6.0 mi West 2.3 mph - N/A   Clear
4:55 AM 33.1 °F - 32.2 °F 96% 30.05 in 7.0 mi North 1.2 mph - N/A   Clear
5:30 AM 32.0 °F - 32.0 °F 100% 30.06 in 9.0 mi West 1.2 mph - N/A   Partly Cloudy
5:40 AM 32.0 °F - 32.0 °F 100% 30.06 in 9.0 mi WNW 1.2 mph - N/A   Mostly Cloudy
5:55 AM 32.4 °F - 31.8 °F 98% 30.07 in 10.0 mi North - - N/A   Mostly Cloudy
6:07 AM 32.0 °F - 32.0 °F 100% 30.08 in 2.5 mi Calm Calm - N/A   Mostly Cloudy
6:08 AM 32.0 °F - 32.0 °F 100% 30.08 in 1.8 mi Calm Calm - N/A   Mostly Cloudy
6:10 AM 33.8 °F - 32.0 °F 93% 30.08 in 1.0 mi Calm Calm - N/A   Mostly Cloudy
6:11 AM 33.8 °F - 32.0 °F 93% 30.08 in 0.8 mi Calm Calm - N/A Fog Fog
6:19 AM 33.8 °F - 32.0 °F 93% 30.08 in 1.0 mi Variable 1.2 mph - N/A Fog Patches of Fog
6:20 AM 33.8 °F - 32.0 °F 93% 30.08 in 1.2 mi West 1.2 mph - N/A Fog Patches of Fog
6:21 AM 33.8 °F - 32.0 °F 93% 30.08 in 2.5 mi West 1.2 mph - N/A Fog Patches of Fog
6:22 AM 32.0 °F - 32.0 °F 100% 30.08 in 4.0 mi Calm Calm - N/A Fog Patches of Fog
6:36 AM 32.0 °F - 32.0 °F 100% 30.09 in 2.0 mi NNE 2.3 mph - N/A   Mist
6:37 AM 32.0 °F - 32.0 °F 100% 30.09 in 1.0 mi NNE 2.3 mph - N/A   Mist
6:38 AM 32.0 °F 28.7 °F 32.0 °F 100% 30.09 in 0.8 mi North 3.5 mph - N/A Fog , Rain Light Rain
6:50 AM 30.2 °F 26.7 °F 30.2 °F 100% 30.10 in 0.8 mi North 3.5 mph - N/A Fog , Rain Light Freezing Rain
6:51 AM 30.2 °F 26.7 °F 30.2 °F 100% 30.10 in 1.0 mi North 3.5 mph - N/A Fog , Rain Light Freezing Rain
6:52 AM 30.2 °F 26.7 °F 30.2 °F 100% 30.10 in 1.5 mi North 3.5 mph - N/A Fog , Rain Light Freezing Rain
6:53 AM 30.2 °F - 30.2 °F 100% 30.10 in 4.0 mi NNW 2.3 mph - N/A Fog , Rain Light Freezing Rain
6:54 AM 30.2 °F - 30.2 °F 100% 30.10 in 2.5 mi NNW 2.3 mph - N/A Fog , Rain Light Freezing Rain
6:55 AM 30.7 °F - 30.7 °F 100% 30.10 in 2.0 mi NNW 2.3 mph - N/A Fog , Rain Light Freezing Rain
6:56 AM 30.2 °F - 30.2 °F 100% 30.10 in 1.2 mi NNW 2.3 mph - N/A Fog , Rain Light Freezing Rain
6:57 AM 30.2 °F - 30.2 °F 100% 30.10 in 1.0 mi NNW 2.3 mph - N/A Fog , Rain Light Freezing Rain
6:58 AM 32.0 °F - 32.0 °F 100% 30.10 in 0.5 mi NW 2.3 mph - N/A Fog , Rain Light Rain Showers
7:06 AM 30.2 °F 26.7 °F 30.2 °F 100% 30.11 in 1.0 mi NNW 3.5 mph - N/A Fog , Rain Light Freezing Rain
7:07 AM - - - N/A% 30.11 in 2.5 mi NNW 3.5 mph - N/A Fog , Rain Light Rain Showers
7:08 AM 32.0 °F 28.7 °F 32.0 °F 100% 30.11 in 5.0 mi NW 3.5 mph - N/A Fog , Rain Light Rain Showers
7:09 AM 32.0 °F 28.7 °F 32.0 °F 100% 30.11 in 6.0 mi NW 3.5 mph - N/A Fog , Rain Light Rain Showers
7:11 AM 32.0 °F 28.7 °F 32.0 °F 100% 30.11 in 2.0 mi NNW 3.5 mph - N/A Fog , Rain Light Rain Showers
7:12 AM 32.0 °F 28.7 °F 32.0 °F 100% 30.11 in 1.5 mi NNW 3.5 mph - N/A Fog Patches of Fog
7:13 AM 32.0 °F 28.7 °F 32.0 °F 100% 30.11 in 0.8 mi NNW 3.5 mph - N/A Rain Light Rain Showers
7:55 AM 32.2 °F - 32.5 °F 100% 30.14 in 0.2 mi Variable 1.2 mph - N/A Fog , Rain Light Rain Showers
8:15 AM 33.8 °F 30.8 °F 33.8 °F 100% 30.15 in 0.2 mi North 3.5 mph - N/A Fog , Rain Light Rain Showers
8:55 AM - - - N/A% 30.17 in 0.2 mi NNW 4.6 mph - N/A Fog , Rain Light Rain Showers
9:10 AM 39.2 °F 37.0 °F 39.2 °F 100% 30.17 in 0.5 mi NW 3.5 mph - N/A Fog , Rain Light Rain Showers
9:13 AM - - - N/A% 30.17 in 1.0 mi NW 3.5 mph - N/A Rain Light Rain Showers
9:14 AM 41.0 °F 39.0 °F 41.0 °F 100% 30.17 in 1.5 mi NW 3.5 mph - N/A   Mostly Cloudy
9:15 AM 41.0 °F 39.0 °F 41.0 °F 100% 30.17 in 2.0 mi NNW 3.5 mph - N/A   Scattered Clouds
9:16 AM 41.0 °F 39.0 °F 41.0 °F 100% 30.17 in 3.0 mi NNW 3.5 mph - N/A   Scattered Clouds
9:55 AM 46.2 °F 45.0 °F 45.7 °F 98% 30.18 in 10.0 mi NW 3.5 mph - N/A   Clear
10:21 AM 46.2 °F 45.0 °F 45.7 °F 98% 30.17 in 10.0 mi NW 3.5 mph - N/A   Clear
10:55 AM 57.4 °F - 34.7 °F 43% 30.18 in 10.0 mi NNE 9.2 mph - N/A   Clear
11:55 AM 59.0 °F - 32.2 °F 36% 30.17 in 10.0 mi Variable 3.5 mph - N/A   Clear
12:55 PM 61.5 °F - 33.3 °F 35% 30.15 in 10.0 mi North 6.9 mph - N/A   Clear
1:55 PM 63.5 °F - 30.4 °F 29% 30.14 in 10.0 mi Variable 3.5 mph - N/A   Clear
2:55 PM 63.9 °F - 29.1 °F 27% 30.13 in 10.0 mi Variable 3.5 mph - N/A   Clear
3:55 PM 64.2 °F - 27.9 °F 25% 30.13 in 10.0 mi Variable 2.3 mph - N/A   Clear
4:55 PM 63.9 °F - 27.0 °F 25% 30.15 in 10.0 mi West 8.1 mph - N/A   Clear
5:55 PM 59.0 °F - 27.5 °F 30% 30.17 in 10.0 mi West 4.6 mph - N/A   Clear
6:55 PM 54.0 °F - 30.9 °F 41% 30.20 in 10.0 mi NW 3.5 mph - N/A   Clear
7:55 PM 45.1 °F 42.8 °F 33.8 °F 65% 30.22 in 10.0 mi North 4.6 mph - N/A   Clear
8:55 PM 41.4 °F - 34.0 °F 75% 30.24 in 10.0 mi North 2.3 mph - N/A   Clear
9:55 PM 41.7 °F 39.8 °F 33.1 °F 71% 30.24 in 10.0 mi NE 3.5 mph - N/A   Clear
10:55 PM 48.9 °F - 25.2 °F 40% 30.24 in 10.0 mi East 4.6 mph - N/A   Clear
11:55 PM 40.3 °F 37.1 °F 31.5 °F 71% 30.27 in 10.0 mi ENE 4.6 mph - N/A   Clear